Location: Newark
(40.7119°N, 74.0097°W)
Time: 03:36:21
(UTC+00:00)

ISS - Visible Passes

Search period start: 22 June 2021 00:00
Search period end: 02 July 2021 00:00
Orbit: 417 x 422 km, 51.6° (Epoch: 21 June)

Date Brightness Start Highest point End Pass type
(mag) Time Alt. Az. Time Alt. Az. Time Alt. Az.
25 Jun -1.5 08:24:06 10° S 08:26:20 17° SE 08:28:36 10° E visible
27 Jun -3.2 08:25:18 14° SSW 08:27:57 50° SE 08:31:14 10° ENE visible
28 Jun -2.4 07:39:40 25° SSE 07:40:35 28° SE 07:43:32 10° ENE visible
29 Jun -1.5 06:53:59 16° ESE 06:53:59 16° ESE 06:55:33 10° E visible
29 Jun -3.3 08:26:55 13° WSW 08:29:47 55° NNW 08:33:06 10° NE visible
30 Jun -3.8 07:41:11 39° SW 07:42:18 89° SE 07:45:40 10° NE visible
01 Jul -3.0 06:55:22 45° ESE 06:55:22 45° ESE 06:58:08 10° ENE visible
01 Jul -1.9 08:28:57 10° W 08:31:49 25° NNW 08:34:42 10° NE visible
